PAS728 WARA-WADL

Flight info

Callsign PAS728
Flight time 0h 45m
Altitude 31000
Route WARA/35 SBR1B SBR W34 AGUNG AGUNG1H WADL/13
Aircraft A20N/M-VGDW/C

Departure

Time 2026-04-21 16:48
Airport Abdul Rachman Saleh Airport (WARA)

Arrival

Time 2026-04-21 17:34
Airport Lombok International Airport (WADL)
Time Latitude Longitude Altitude Speed Heading
2026-04-21 16:37 -7.93748 112.71230 1727 ft 0 kts 257°
2026-04-21 16:37 -7.93749 112.71230 1727 ft 0 kts 257°
2026-04-21 16:38 -7.93748 112.71230 1727 ft 0 kts 257°
2026-04-21 16:39 -7.93745 112.71244 1727 ft 2 kts 257°
2026-04-21 16:39 -7.93742 112.71259 1727 ft 2 kts 257°
2026-04-21 16:39 -7.93739 112.71273 1728 ft 2 kts 257°
2026-04-21 16:39 -7.93736 112.71285 1728 ft 1 kts 258°
2026-04-21 16:40 -7.93734 112.71291 1728 ft 0 kts 202°
2026-04-21 16:40 -7.93726 112.71291 1728 ft 2 kts 154°
2026-04-21 16:40 -7.93715 112.71287 1728 ft 0 kts 170°
2026-04-21 16:40 -7.93713 112.71287 1728 ft 0 kts 171°
2026-04-21 16:43 -7.93714 112.71287 1728 ft 0 kts 171°
2026-04-21 16:43 -7.93728 112.71289 1728 ft 3 kts 169°
2026-04-21 16:43 -7.93773 112.71298 1727 ft 9 kts 166°
2026-04-21 16:44 -7.93835 112.71317 1726 ft 6 kts 137°
2026-04-21 16:44 -7.93837 112.71357 1727 ft 5 kts 78°
2026-04-21 16:44 -7.93829 112.71393 1728 ft 4 kts 77°
2026-04-21 16:44 -7.93822 112.71423 1728 ft 4 kts 76°
2026-04-21 16:45 -7.93816 112.71447 1729 ft 3 kts 76°
2026-04-21 16:45 -7.93808 112.71478 1729 ft 5 kts 76°
2026-04-21 16:45 -7.93798 112.71522 1731 ft 7 kts 77°
2026-04-21 16:45 -7.93786 112.71574 1733 ft 8 kts 76°
2026-04-21 16:46 -7.93782 112.71629 1734 ft 7 kts 121°
2026-04-21 16:46 -7.93837 112.71659 1734 ft 11 kts 165°
2026-04-21 16:46 -7.93919 112.71694 1734 ft 14 kts 142°
2026-04-21 16:46 -7.93981 112.71709 1733 ft 5 kts 248°
2026-04-21 16:47 -7.93950 112.71687 1733 ft 3 kts 347°
2026-04-21 16:47 -7.93772 112.71644 1735 ft 64 kts 347°
2026-04-21 16:48 -7.93112 112.71482 1746 ft 130 kts 347°
2026-04-21 16:48 -7.92031 112.71208 1859 ft 175 kts 347°
2026-04-21 16:48 -7.90857 112.70908 2486 ft 178 kts 347°
2026-04-21 16:48 -7.89675 112.70586 3298 ft 177 kts 346°
2026-04-21 16:49 -7.88498 112.70252 3920 ft 179 kts 346°
2026-04-21 16:49 -7.87232 112.70083 4270 ft 193 kts
2026-04-21 16:49 -7.85856 112.70351 4672 ft 207 kts 14°
2026-04-21 16:49 -7.84373 112.70716 4981 ft 230 kts 14°
2026-04-21 16:50 -7.82766 112.71122 5405 ft 248 kts 14°
2026-04-21 16:50 -7.81022 112.71566 5834 ft 266 kts 14°
2026-04-21 16:50 -7.79215 112.72024 6463 ft 274 kts 14°
2026-04-21 16:50 -7.77396 112.72483 7196 ft 277 kts 14°
2026-04-21 16:51 -7.75577 112.72940 7917 ft 280 kts 14°
2026-04-21 16:51 -7.73743 112.73395 8640 ft 283 kts 14°
2026-04-21 16:51 -7.71890 112.73786 9314 ft 287 kts
2026-04-21 16:51 -7.69960 112.73990 10011 ft 290 kts
2026-04-21 16:52 -7.67951 112.74154 10618 ft 298 kts
2026-04-21 16:52 -7.65847 112.74331 10952 ft 315 kts
2026-04-21 16:52 -7.63605 112.74534 11262 ft 332 kts
2026-04-21 16:52 -7.61224 112.74760 11578 ft 348 kts
2026-04-21 16:53 -7.58775 112.75000 12081 ft 357 kts
2026-04-21 16:53 -7.56299 112.75245 12751 ft 359 kts
2026-04-21 16:53 -7.53813 112.75491 13375 ft 362 kts
2026-04-21 16:53 -7.51285 112.75745 13960 ft 366 kts
2026-04-21 16:54 -7.48767 112.75997 14550 ft 369 kts
2026-04-21 16:54 -7.46183 112.76257 15102 ft 373 kts
2026-04-21 16:54 -7.43658 112.76838 15587 ft 375 kts 24°
2026-04-21 16:54 -7.41479 112.78239 16098 ft 375 kts 44°
2026-04-21 16:55 -7.39884 112.80296 16606 ft 376 kts 63°
2026-04-21 16:55 -7.39056 112.82736 17093 ft 378 kts 81°
2026-04-21 16:55 -7.39059 112.85350 17571 ft 381 kts 99°
2026-04-21 16:55 -7.39597 112.87875 18058 ft 383 kts 102°
2026-04-21 16:56 -7.40190 112.90482 18488 ft 387 kts 102°
2026-04-21 16:56 -7.40782 112.93117 18907 ft 391 kts 102°
2026-04-21 16:56 -7.41376 112.95802 19347 ft 394 kts 102°
2026-04-21 16:56 -7.41960 112.98477 19780 ft 397 kts 102°
2026-04-21 16:57 -7.42544 113.01179 20175 ft 400 kts 102°
2026-04-21 16:57 -7.43138 113.03938 20564 ft 404 kts 102°
2026-04-21 16:57 -7.43731 113.06705 20958 ft 407 kts 101°
2026-04-21 16:57 -7.44328 113.09499 21372 ft 410 kts 101°
2026-04-21 16:58 -7.44924 113.12291 21772 ft 413 kts 102°
2026-04-21 16:58 -7.45526 113.15118 22142 ft 416 kts 102°
2026-04-21 16:58 -7.46136 113.17980 22513 ft 419 kts 101°
2026-04-21 16:58 -7.46747 113.20840 22900 ft 422 kts 102°
2026-04-21 16:59 -7.47367 113.23749 23307 ft 424 kts 102°
2026-04-21 16:59 -7.47981 113.26636 23700 ft 426 kts 102°
2026-04-21 16:59 -7.48603 113.29559 24076 ft 428 kts 101°
2026-04-21 16:59 -7.49230 113.32504 24437 ft 431 kts 101°
2026-04-21 17:00 -7.49860 113.35466 24798 ft 433 kts 101°
2026-04-21 17:00 -7.50491 113.38431 25148 ft 435 kts 101°
2026-04-21 17:00 -7.51116 113.41376 25478 ft 437 kts 101°
2026-04-21 17:00 -7.51751 113.44362 25805 ft 440 kts 101°
2026-04-21 17:01 -7.52399 113.47411 26137 ft 441 kts 101°
2026-04-21 17:01 -7.53040 113.50430 26449 ft 444 kts 101°
2026-04-21 17:01 -7.53678 113.53436 26750 ft 446 kts 101°
2026-04-21 17:01 -7.54325 113.56486 27043 ft 448 kts 101°
2026-04-21 17:02 -7.54971 113.59538 27396 ft 448 kts 101°
2026-04-21 17:02 -7.55626 113.62627 27810 ft 447 kts 101°
2026-04-21 17:02 -7.56273 113.65678 28212 ft 446 kts 101°
2026-04-21 17:02 -7.56911 113.68688 28606 ft 445 kts 101°
2026-04-21 17:03 -7.57558 113.71741 29012 ft 445 kts 101°
2026-04-21 17:03 -7.58194 113.74751 29400 ft 444 kts 101°
2026-04-21 17:03 -7.58835 113.77783 29723 ft 445 kts 101°
2026-04-21 17:03 -7.59486 113.80866 30020 ft 447 kts 101°
2026-04-21 17:04 -7.60126 113.83892 30326 ft 449 kts 101°
2026-04-21 17:04 -7.60776 113.86973 30642 ft 450 kts 101°
2026-04-21 17:04 -7.61431 113.90076 30884 ft 452 kts 101°
2026-04-21 17:05 -7.62729 113.96211 30903 ft 453 kts 101°
2026-04-21 17:05 -7.64022 114.02342 30910 ft 453 kts 101°
2026-04-21 17:06 -7.65303 114.08419 30903 ft 453 kts 101°
2026-04-21 17:06 -7.66550 114.14341 30911 ft 453 kts 101°
2026-04-21 17:07 -7.67807 114.20318 30904 ft 453 kts 101°
2026-04-21 17:07 -7.69093 114.26431 30898 ft 454 kts 101°
2026-04-21 17:08 -7.70385 114.32587 30898 ft 454 kts 101°
2026-04-21 17:08 -7.71666 114.38674 30894 ft 454 kts 101°
2026-04-21 17:09 -7.73648 114.47932 30885 ft 453 kts 101°
2026-04-21 17:09 -7.74960 114.54073 30884 ft 452 kts 102°
2026-04-21 17:10 -7.76276 114.60253 30878 ft 453 kts 102°
2026-04-21 17:10 -7.77593 114.66445 30879 ft 453 kts 102°
2026-04-21 17:11 -7.78905 114.72608 30874 ft 452 kts 101°
2026-04-21 17:11 -7.80213 114.78757 30866 ft 452 kts 101°
2026-04-21 17:12 -7.81526 114.84941 30083 ft 458 kts 101°
2026-04-21 17:12 -7.82187 114.88059 29246 ft 460 kts 101°
2026-04-21 17:12 -7.82850 114.91183 28486 ft 460 kts 101°
2026-04-21 17:13 -7.83513 114.94315 27731 ft 459 kts 101°
2026-04-21 17:13 -7.84169 114.97414 26960 ft 459 kts 101°
2026-04-21 17:13 -7.84826 115.00518 26308 ft 455 kts 102°
2026-04-21 17:13 -7.85486 115.03633 25790 ft 448 kts 102°
2026-04-21 17:14 -7.86132 115.06680 25276 ft 443 kts 102°
2026-04-21 17:14 -7.86761 115.09651 24755 ft 438 kts 102°
2026-04-21 17:14 -7.87389 115.12620 24232 ft 433 kts 102°
2026-04-21 17:14 -7.88019 115.15598 23702 ft 429 kts 102°
2026-04-21 17:15 -7.88629 115.18486 23191 ft 425 kts 102°
2026-04-21 17:15 -7.89238 115.21366 22678 ft 421 kts 102°
2026-04-21 17:15 -7.89851 115.24267 22160 ft 418 kts 102°
2026-04-21 17:15 -7.90448 115.27092 21661 ft 415 kts 101°
2026-04-21 17:16 -7.91044 115.29913 21156 ft 411 kts 101°
2026-04-21 17:16 -7.91635 115.32712 20649 ft 408 kts 101°
2026-04-21 17:16 -7.92227 115.35513 20136 ft 405 kts 101°
2026-04-21 17:16 -7.92809 115.38275 19624 ft 402 kts 101°
2026-04-21 17:17 -7.93379 115.40978 19123 ft 398 kts 101°
2026-04-21 17:17 -7.93951 115.43688 18617 ft 395 kts 101°
2026-04-21 17:17 -7.94522 115.46403 18106 ft 392 kts 100°
2026-04-21 17:17 -7.95081 115.49057 17605 ft 389 kts 100°
2026-04-21 17:18 -7.95638 115.51704 17106 ft 385 kts 100°
2026-04-21 17:18 -7.96189 115.54331 16609 ft 382 kts 100°
2026-04-21 17:18 -7.96738 115.56947 16106 ft 379 kts 100°
2026-04-21 17:18 -7.97276 115.59509 15608 ft 376 kts 100°
2026-04-21 17:19 -7.97817 115.62091 15104 ft 373 kts 100°
2026-04-21 17:19 -7.98345 115.64606 14610 ft 369 kts 100°
2026-04-21 17:19 -7.98957 115.67129 14106 ft 367 kts 105°
2026-04-21 17:19 -7.99886 115.69514 13679 ft 363 kts 113°
2026-04-21 17:20 -8.01071 115.71686 13682 ft 358 kts 118°
2026-04-21 17:20 -8.02367 115.73852 13704 ft 359 kts 118°
2026-04-21 17:20 -8.03673 115.76009 13726 ft 359 kts 118°
2026-04-21 17:20 -8.04970 115.78155 13740 ft 359 kts 118°
2026-04-21 17:21 -8.06263 115.80305 13751 ft 359 kts 118°
2026-04-21 17:21 -8.07568 115.82481 13654 ft 361 kts 118°
2026-04-21 17:21 -8.08863 115.84644 13114 ft 361 kts 118°
2026-04-21 17:21 -8.10159 115.86810 12584 ft 360 kts 118°
2026-04-21 17:22 -8.11446 115.88953 12079 ft 358 kts 120°
2026-04-21 17:22 -8.13066 115.90827 11551 ft 362 kts 141°
2026-04-21 17:22 -8.15354 115.91877 11053 ft 366 kts 165°
2026-04-21 17:22 -8.17916 115.92036 10648 ft 364 kts 178°
2026-04-21 17:23 -8.20394 115.92004 10422 ft 352 kts 178°
2026-04-21 17:23 -8.22806 115.91985 10278 ft 339 kts 177°
2026-04-21 17:23 -8.25125 115.91985 10137 ft 326 kts 177°
2026-04-21 17:23 -8.27369 115.91996 10004 ft 314 kts 177°
2026-04-21 17:24 -8.29523 115.92012 9774 ft 307 kts 176°
2026-04-21 17:24 -8.31659 115.92033 9396 ft 305 kts 176°
2026-04-21 17:24 -8.33780 115.92052 9027 ft 304 kts 177°
2026-04-21 17:24 -8.35844 115.92278 8644 ft 296 kts 156°
2026-04-21 17:25 -8.37625 115.93267 8311 ft 288 kts 142°
2026-04-21 17:25 -8.39241 115.94428 7971 ft 286 kts 141°
2026-04-21 17:25 -8.40860 115.95588 7628 ft 284 kts 142°
2026-04-21 17:25 -8.42493 115.96720 7284 ft 282 kts 142°
2026-04-21 17:26 -8.44131 115.97825 6942 ft 281 kts 143°
2026-04-21 17:26 -8.45750 115.98899 6607 ft 279 kts 143°
2026-04-21 17:26 -8.47339 115.99944 6283 ft 277 kts 143°
2026-04-21 17:26 -8.48942 116.00994 5991 ft 273 kts 143°
2026-04-21 17:27 -8.50502 116.02012 5936 ft 259 kts 143°
2026-04-21 17:27 -8.51965 116.02965 5932 ft 244 kts 143°
2026-04-21 17:27 -8.53380 116.03889 5940 ft 239 kts 143°
2026-04-21 17:27 -8.54766 116.04800 5687 ft 241 kts 143°
2026-04-21 17:28 -8.56175 116.05726 5374 ft 241 kts 143°
2026-04-21 17:28 -8.57586 116.06652 5068 ft 241 kts 143°
2026-04-21 17:28 -8.58992 116.07573 4754 ft 241 kts 143°
2026-04-21 17:28 -8.60363 116.08547 4436 ft 239 kts 134°
2026-04-21 17:29 -8.61515 116.09773 4110 ft 237 kts 126°
2026-04-21 17:29 -8.62530 116.11049 3930 ft 230 kts 125°
2026-04-21 17:29 -8.63502 116.12299 3684 ft 228 kts 125°
2026-04-21 17:29 -8.64484 116.13547 3389 ft 222 kts 125°
2026-04-21 17:30 -8.65435 116.14737 3109 ft 214 kts 126°
2026-04-21 17:30 -8.66354 116.15879 2838 ft 206 kts 126°
2026-04-21 17:30 -8.67231 116.16967 2672 ft 193 kts 126°
2026-04-21 17:30 -8.68074 116.18012 2406 ft 188 kts 125°
2026-04-21 17:31 -8.68879 116.19013 2165 ft 177 kts 125°
2026-04-21 17:31 -8.69633 116.19949 1916 ft 162 kts 125°
2026-04-21 17:31 -8.70307 116.20785 1684 ft 148 kts 124°
2026-04-21 17:31 -8.70937 116.21569 1489 ft 140 kts 124°
2026-04-21 17:32 -8.71549 116.22332 1333 ft 140 kts 124°
2026-04-21 17:32 -8.72172 116.23102 1162 ft 141 kts 126°
2026-04-21 17:32 -8.72788 116.23874 971 ft 140 kts 125°
2026-04-21 17:32 -8.73404 116.24631 793 ft 140 kts 126°
2026-04-21 17:33 -8.74024 116.25394 630 ft 139 kts 125°
2026-04-21 17:33 -8.74631 116.26160 448 ft 138 kts 126°
2026-04-21 17:33 -8.75227 116.26908 322 ft 130 kts 126°
2026-04-21 17:33 -8.75684 116.27479 320 ft 81 kts 128°
2026-04-21 17:34 -8.75936 116.27790 323 ft 34 kts 127°
2026-04-21 17:34 -8.76046 116.27797 323 ft 17 kts 218°
2026-04-21 17:34 -8.76140 116.27722 323 ft 14 kts 218°
2026-04-21 17:34 -8.76187 116.27672 323 ft 8 kts 267°
2026-04-21 17:35 -8.76151 116.27612 322 ft 11 kts 309°
2026-04-21 17:35 -8.76110 116.27557 321 ft 7 kts 280°
2026-04-21 17:35 -8.76145 116.27516 320 ft 7 kts 219°
2026-04-21 17:35 -8.76170 116.27496 320 ft 0 kts 219°